EW5393 Weather Reports


time (UTC)temp
F
wind
direction
speed
knots
gust
knots
rain 1hr
in
rain 24hr
in
rain mn
in
humidity
%
barometer
mb
20260507062306 51 114 1.7 5.2 0.00 0.00 0.00 50 1012.8
20260507061804 51 342 0.9 2.6 0.00 0.00 0.00 49 1012.7
20260507060804 52 44 0.0 0.0 0.00 0.00 0.00 48 1012.7
20260507060304 52 17 0.0 1.7 0.00 0.00 0.00 48 1012.8
20260507055306 52 109 0.9 2.6 0.00 0.00 0.00 49 1012.7
20260507054804 51 104 1.7 2.6 0.00 0.00 0.00 49 1012.7
20260507054304 52 53 0.0 0.0 0.00 0.00 0.00 48 1012.2
20260507053304 52 106 0.9 1.7 0.00 0.00 0.00 49 1012.0
20260507052804 52 105 0.9 1.7 0.00 0.00 0.00 49 1012.1
20260507052306 52 126 0.9 2.6 0.00 0.00 0.00 47 1012.0
20260507051804 52 193 0.0 0.9 0.00 0.00 0.00 44 1012.0
20260507051304 52 318 0.0 0.9 0.00 0.00 0.00 45 1011.7
20260507050803 53 287 0.9 1.7 0.00 0.00 0.00 44 1011.8
20260507050304 53 169 0.0 1.7 0.00 0.00 0.00 44 1011.9
20260507045804 53 305 0.0 0.9 0.00 0.00 0.00 45 1011.9
20260507045306 53 304 0.0 0.9 0.00 0.00 0.00 44 1011.8
20260507044804 54 300 0.9 0.9 0.00 0.00 0.00 44 1011.7
20260507044303 54 131 0.0 1.7 0.00 0.00 0.00 44 1011.8
20260507043804 54 82 0.0 1.7 0.00 0.00 0.00 45 1011.8
20260507043303 54 138 0.0 1.7 0.00 0.00 0.00 46 1011.7
20260507042804 54 156 0.0 1.7 0.00 0.00 0.00 46 1011.5
20260507042306 55 163 0.0 0.9 0.00 0.00 0.00 46 1011.5
20260507041804 55 156 0.9 1.7 0.00 0.00 0.00 45 1011.2
20260507041304 55 201 0.9 1.7 0.00 0.00 0.00 45 1011.0
20260507040804 55 121 0.9 1.7 0.00 0.00 0.00 45 1011.1
20260507040303 55 206 0.9 0.9 0.00 0.00 0.00 44 1010.8
20260507035803 55 283 0.9 1.7 0.00 0.00 0.00 44 1010.8
20260507035306 56 283 0.0 0.9 0.00 0.00 0.00 42 1010.9
20260507034803 56 276 0.0 1.7 0.00 0.00 0.00 42 1010.8
20260507034304 56 284 0.9 1.7 0.00 0.00 0.00 41 1010.7
20260507033804 56 315 0.9 1.7 0.00 0.00 0.00 41 1010.5
20260507033304 57 286 0.9 1.7 0.00 0.00 0.00 41 1010.5
20260507032804 57 267 0.9 1.7 0.00 0.00 0.00 40 1010.4
20260507031804 58 270 1.7 5.2 0.00 0.00 0.00 39 1010.3
20260507031304 58 264 0.9 2.6 0.00 0.00 0.00 38 1010.2
20260507030804 58 191 1.7 5.2 0.00 0.00 0.00 38 1010.2
20260507030304 59 275 1.7 5.2 0.00 0.00 0.00 37 1010.1
20260507025306 59 226 0.9 6.1 0.00 0.00 0.00 36 1010.0
20260507024803 60 230 2.6 5.2 0.00 0.00 0.00 35 1009.8
20260507024304 60 204 1.7 6.1 0.00 0.00 0.00 35 1009.8
20260507023805 60 126 1.7 6.1 0.00 0.00 0.00 34 1009.6
20260507023304 61 163 2.6 7.8 0.00 0.00 0.00 34 1009.8
20260507022803 61 138 2.6 6.1 0.00 0.00 0.00 33 1009.6
20260507022306 62 133 2.6 8.7 0.00 0.00 0.00 32 1009.6
20260507021303 63 170 4.3 10.4 0.00 0.00 0.00 30 1009.4
20260507020804 64 139 4.3 11.3 0.00 0.00 0.00 30 1009.3
20260507020304 64 117 2.6 5.2 0.00 0.00 0.00 32 1009.2
20260507015804 64 143 2.6 6.1 0.00 0.00 0.00 31 1009.1
20260507015306 65 137 2.6 7.0 0.00 0.00 0.00 31 1009.0
20260507014304 65 210 2.6 7.0 0.00 0.00 0.00 32 1009.0
20260507013804 65 129 1.7 11.3 0.00 0.00 0.00 31 1009.0
20260507013303 65 124 2.6 7.8 0.00 0.00 0.00 31 1009.0
20260507012306 65 101 3.5 7.8 0.00 0.00 0.00 31 1008.9
20260507011804 65 98 1.7 7.0 0.00 0.00 0.00 30 1009.1
20260507011304 65 138 2.6 6.1 0.00 0.00 0.00 30 1009.1
20260507010804 66 120 3.5 7.0 0.00 0.00 0.00 30 1008.9
20260507004804 66 95 5.2 8.7 0.00 0.00 0.00 31 1008.8
20260507004304 67 109 3.5 7.8 0.00 0.00 0.00 31 1009.1
20260507003804 67 130 4.3 8.7 0.00 0.00 0.00 31 1008.9
20260507002306 67 113 3.5 7.0 0.00 0.00 0.00 31 1009.2
20260507001804 67 114 4.3 10.4 0.00 0.00 0.00 30 1008.7
20260507001303 67 150 2.6 8.7 0.00 0.00 0.00 29 1008.6
20260507000803 67 134 2.6 7.8 0.00 0.00 0.00 27 1008.5
20260506235804 68 172 2.6 7.0 0.00 0.00 0.00 26 1008.4
20260506235306 69 144 2.6 7.0 0.00 0.00 0.00 26 1008.2
20260506234804 69 116 1.7 4.3 0.00 0.00 0.00 27 1008.0
20260506233803 69 120 0.9 2.6 0.00 0.00 0.00 26 1008.1
20260506233304 69 183 1.7 4.3 0.00 0.00 0.00 27 1008.2
20260506232804 69 229 1.7 4.3 0.00 0.00 0.00 28 1008.2
20260506232306 69 152 1.7 4.3 0.00 0.00 0.00 28 1008.2
20260506231803 68 82 1.7 4.3 0.00 0.00 0.00 30 1008.4
20260506231304 68 300 1.7 5.2 0.00 0.00 0.00 33 1008.2
20260506230804 68 305 2.6 7.8 0.00 0.00 0.00 33 1008.6
20260506230304 69 348 1.7 6.1 0.00 0.00 0.00 32 1008.5
20260506225306 69 115 2.6 5.2 0.00 0.00 0.00 26 1008.7
20260506224804 70 122 0.9 6.1 0.00 0.00 0.00 25 1008.6
20260506224304 70 152 1.7 6.1 0.00 0.00 0.00 25 1008.5
20260506223804 70 124 1.7 5.2 0.00 0.00 0.00 25 1008.5
20260506223303 70 124 2.6 6.1 0.00 0.00 0.00 25 1008.4
20260506222306 70 189 1.7 7.8 0.00 0.00 0.00 25 1008.7
20260506221804 70 98 1.7 4.3 0.00 0.00 0.00 25 1008.7
20260506221304 70 251 2.6 7.0 0.00 0.00 0.00 24 1008.8
20260506220804 71 234 2.6 6.1 0.00 0.00 0.00 24 1008.8
20260506220303 71 143 2.6 7.0 0.00 0.00 0.00 24 1008.8
20260506215804 71 154 1.7 6.1 0.00 0.00 0.00 23 1008.8
20260506215306 71 183 1.7 6.1 0.00 0.00 0.00 24 1008.9
20260506214804 71 65 1.7 6.1 0.00 0.00 0.00 24 1009.0
20260506214304 70 192 1.7 6.1 0.00 0.00 0.00 25 1008.9
20260506213804 70 144 1.7 6.1 0.00 0.00 0.00 24 1009.0
20260506212306 70 97 0.9 5.2 0.00 0.00 0.00 25 1009.0
20260506211804 70 140 2.6 7.0 0.00 0.00 0.00 25 1009.2
20260506211304 69 149 1.7 6.1 0.00 0.00 0.00 25 1009.1
20260506210804 69 109 1.7 4.3 0.00 0.00 0.00 25 1009.1
20260506205804 69 143 1.7 6.1 0.00 0.00 0.00 25 1009.1
20260506205305 69 112 3.5 6.1 0.00 0.00 0.00 25 1009.3
20260506204304 69 109 1.7 6.1 0.00 0.00 0.00 25 1009.2
20260506203804 69 226 1.7 4.3 0.00 0.00 0.00 25 1009.3
20260506203303 69 216 1.7 4.3 0.00 0.00 0.00 25 1009.4
20260506202804 69 227 0.9 2.6 0.00 0.00 0.00 24 1009.5
20260506202306 69 254 1.7 4.3 0.00 0.00 0.00 26 1009.6
20260506201804 69 246 1.7 4.3 0.00 0.00 0.00 25 1009.5
20260506201304 69 278 1.7 4.3 0.00 0.00 0.00 25 1009.4
20260506200804 69 74 2.6 6.1 0.00 0.00 0.00 25 1009.5
20260506200303 69 217 2.6 6.1 0.00 0.00 0.00 26 1009.5
20260506195804 69 189 1.7 5.2 0.00 0.00 0.00 25 1009.6
20260506195306 69 96 0.9 5.2 0.00 0.00 0.00 24 1009.6
20260506194804 69 124 1.7 6.1 0.00 0.00 0.00 26 1009.5
20260506194304 69 134 0.9 5.2 0.00 0.00 0.00 26 1009.6
20260506193804 69 226 1.7 4.3 0.00 0.00 0.00 25 1009.8
20260506192804 69 143 1.7 4.3 0.00 0.00 0.00 25 1009.8
20260506192306 69 251 0.9 6.1 0.00 0.00 0.00 25 1009.8
20260506191304 69 243 3.5 7.0 0.00 0.00 0.00 26 1009.9
20260506190304 69 252 2.6 7.0 0.00 0.00 0.00 26 1010.2
20260506185804 69 287 2.6 7.0 0.00 0.00 0.00 27 1010.0
20260506185306 69 208 2.6 7.0 0.00 0.00 0.00 26 1010.1
20260506184304 67 279 2.6 6.1 0.00 0.00 0.00 28 1010.2
20260506183804 67 261 2.6 7.0 0.00 0.00 0.00 27 1010.4
20260506183304 67 287 2.6 6.1 0.00 0.00 0.00 27 1010.4
20260506182804 67 280 4.3 8.7 0.00 0.00 0.00 27 1010.3
20260506182306 68 291 3.5 7.8 0.00 0.00 0.00 27 1010.4
20260506181804 69 228 1.7 6.1 0.00 0.00 0.00 25 1010.4
20260506181303 69 274 2.6 7.8 0.00 0.00 0.00 27 1010.5
20260506180304 69 298 5.2 7.8 0.00 0.00 0.00 26 1010.7
20260506175803 70 251 2.6 7.0 0.00 0.00 0.00 25 1010.6
20260506174304 70 290 2.6 8.7 0.00 0.00 0.00 26 1010.8
20260506173304 69 294 2.6 6.1 0.00 0.00 0.00 27 1011.0
20260506172804 69 294 4.3 6.1 0.00 0.00 0.00 27 1011.0
20260506172306 69 279 2.6 5.2 0.00 0.00 0.00 27 1011.3
20260506171303 69 355 1.7 7.0 0.00 0.00 0.00 29 1011.3
20260506170304 68 330 1.7 6.1 0.00 0.00 0.00 27 1011.5
20260506165804 68 307 1.7 5.2 0.00 0.00 0.00 27 1011.5
20260506165305 68 338 2.6 5.2 0.00 0.00 0.00 26 1011.7
20260506164804 68 278 1.7 4.3 0.00 0.00 0.00 27 1011.7
20260506163804 67 336 1.7 4.3 0.00 0.00 0.00 27 1011.9
20260506163303 67 311 2.6 7.0 0.00 0.00 0.00 26 1011.9
20260506162306 67 294 2.6 7.0 0.00 0.00 0.00 28 1011.9
20260506161304 66 282 2.6 5.2 0.00 0.00 0.00 29 1012.0
20260506160804 66 8 1.7 5.2 0.00 0.00 0.00 28 1012.0
20260506160304 66 324 2.6 5.2 0.00 0.00 0.00 27 1012.4
20260506155306 65 291 2.6 5.2 0.00 0.00 0.00 29 1012.4
20260506154804 64 321 1.7 4.3 0.00 0.00 0.00 29 1012.3
20260506153804 63 334 1.7 5.2 0.00 0.00 0.00 30 1012.5
20260506152804 61 311 0.9 2.6 0.00 0.00 0.00 30 1012.5
20260506152306 61 346 0.9 4.3 0.00 0.00 0.00 31 1012.5
20260506151803 60 280 1.7 4.3 0.00 0.00 0.00 33 1012.6
20260506151304 59 283 0.9 2.6 0.00 0.00 0.00 34 1012.6
20260506150305 57 294 1.7 5.2 0.00 0.00 0.00 33 1012.9
20260506145803 57 289 1.7 2.6 0.00 0.00 0.00 34 1012.9
20260506145305 57 297 0.9 2.6 0.00 0.00 0.00 36 1013.0
20260506144304 55 284 1.7 2.6 0.00 0.00 0.00 37 1013.0
20260506143804 54 317 0.9 2.6 0.00 0.00 0.00 38 1013.0
20260506143304 53 290 0.9 2.6 0.00 0.00 0.00 38 1012.9
20260506142804 52 290 0.9 1.7 0.00 0.00 0.00 40 1013.0
20260506142306 51 311 0.9 1.7 0.00 0.00 0.00 39 1013.3
20260506141804 50 299 0.9 1.7 0.00 0.00 0.00 40 1013.4
20260506141304 50 279 0.9 1.7 0.00 0.00 0.00 42 1013.2
20260506140804 49 292 0.9 1.7 0.00 0.00 0.00 44 1013.5
20260506140304 47 348 0.0 1.7 0.00 0.00 0.00 45 1013.5
20260506135804 45 291 0.9 1.7 0.00 0.00 0.00 48 1013.4
20260506134804 41 301 0.0 0.9 0.00 0.00 0.00 55 1013.4
20260506134304 39 290 0.0 1.7 0.00 0.00 0.00 56 1013.5
20260506133804 37 291 0.0 0.9 0.00 0.00 0.00 57 1013.7
20260506133304 36 290 0.0 0.9 0.00 0.00 0.00 57 1013.6
20260506132804 36 286 0.0 0.9 0.00 0.00 0.00 57 1013.7
20260506132307 35 233 0.0 0.9 0.00 0.00 0.00 57 1013.6
20260506131804 35 222 0.0 0.9 0.00 0.00 0.00 57 1013.5
20260506131304 35 222 0.0 0.0 0.00 0.00 0.00 57 1013.6
20260506130804 34 222 0.0 0.0 0.00 0.00 0.00 57 1013.6
20260506130304 34 221 0.0 0.0 0.00 0.00 0.00 57 1013.8
20260506125305 34 256 0.0 0.9 0.00 0.00 0.00 57 1013.8
20260506124304 34 301 0.0 0.0 0.00 0.00 0.00 57 1013.7
20260506123803 34 303 0.0 1.7 0.00 0.00 0.00 57 1013.9
20260506123304 33 277 0.9 1.7 0.00 0.00 0.00 57 1013.9
20260506122804 33 282 0.9 1.7 0.00 0.00 0.00 56 1013.8
20260506122306 33 290 0.9 2.6 0.00 0.00 0.00 56 1013.7
20260506121804 33 288 0.9 2.6 0.00 0.00 0.00 56 1013.8
20260506121304 33 293 0.9 1.7 0.00 0.00 0.00 56 1013.7
20260506120803 33 286 0.9 1.7 0.00 0.00 0.00 56 1014.0
20260506115803 33 261 0.0 1.7 0.00 0.00 0.00 55 1014.0
20260506115306 33 278 0.9 2.6 0.00 0.00 0.00 55 1014.1
20260506114804 33 294 0.9 1.7 0.00 0.00 0.00 54 1014.0
20260506114304 33 294 0.9 1.7 0.00 0.00 0.00 55 1014.1
20260506113804 34 286 1.7 2.6 0.00 0.00 0.00 55 1014.2
20260506113304 34 289 0.9 4.3 0.00 0.00 0.00 55 1014.2
20260506112804 34 296 2.6 5.2 0.00 0.00 0.00 55 1014.4
20260506112306 34 290 2.6 5.2 0.00 0.00 0.00 55 1014.6
20260506111804 34 285 2.6 5.2 0.00 0.00 0.00 55 1014.6
20260506110804 34 281 2.6 6.1 0.00 0.00 0.00 55 1014.5
20260506110304 34 299 2.6 5.2 0.00 0.00 0.00 55 1014.4
20260506105804 34 295 2.6 7.8 0.00 0.00 0.00 55 1014.6
20260506105305 34 293 1.7 4.3 0.00 0.00 0.00 55 1014.6
20260506104804 34 300 0.9 4.3 0.00 0.00 0.00 54 1014.7
20260506104304 34 290 1.7 2.6 0.00 0.00 0.00 54 1014.7
20260506103804 34 299 0.9 2.6 0.00 0.00 0.00 54 1014.8
20260506103304 34 298 0.9 4.3 0.00 0.00 0.00 54 1014.9
20260506102804 34 313 1.7 2.6 0.00 0.00 0.00 54 1014.9
20260506102305 34 296 1.7 4.3 0.00 0.00 0.00 54 1015.0
20260506101804 34 293 1.7 2.6 0.00 0.00 0.00 54 1015.2
20260506101304 34 287 1.7 4.3 0.00 0.00 0.00 53 1015.0
20260506100804 34 295 1.7 4.3 0.00 0.00 0.00 53 1015.1
20260506100303 34 291 0.9 4.3 0.00 0.00 0.00 53 1015.2
20260506095305 34 302 0.9 2.6 0.00 0.00 0.00 53 1015.5
20260506094803 34 290 0.9 4.3 0.00 0.00 0.00 52 1015.5
20260506094304 35 291 0.9 1.7 0.00 0.00 0.00 52 1015.5
20260506093304 35 289 1.7 4.3 0.00 0.00 0.00 52 1015.4
20260506092803 35 299 1.7 4.3 0.00 0.00 0.00 51 1015.9
20260506092306 35 275 0.9 4.3 0.00 0.00 0.00 52 1015.9
20260506091803 35 293 2.6 5.2 0.00 0.00 0.00 51 1015.8
20260506091303 35 286 1.7 4.3 0.00 0.00 0.00 51 1015.8
20260506090304 35 279 2.6 6.1 0.00 0.00 0.00 51 1016.0
20260506085803 35 290 2.6 7.0 0.00 0.00 0.00 51 1016.1
20260506084804 35 264 4.3 7.8 0.00 0.00 0.00 51 1016.0
20260506083804 35 301 4.3 7.0 0.00 0.00 0.00 51 1016.2
20260506082305 36 302 4.3 8.7 0.00 0.00 0.00 50 1016.3
20260506081804 36 288 4.3 10.4 0.00 0.00 0.00 49 1016.5
20260506081304 36 292 3.5 7.0 0.00 0.00 0.00 50 1016.7
20260506080804 36 292 2.6 5.2 0.00 0.00 0.00 50 1016.7
20260506080304 36 274 2.6 5.2 0.00 0.00 0.00 49 1016.7
20260506073303 36 252 1.7 5.2 0.00 0.00 0.00 49 1017.0
20260506072305 37 276 1.7 4.3 0.00 0.00 0.00 48 1017.0
20260506071803 37 263 1.7 5.2 0.00 0.00 0.00 48 1017.1
20260506071304 37 302 2.6 6.1 0.00 0.00 0.00 48 1017.1
20260506070804 37 285 1.7 4.3 0.00 0.00 0.00 48 1017.4
20260506070303 37 290 2.6 6.1 0.00 0.00 0.00 47 1017.3